FW2985 Weather Reports


time (UTC)temp
C
wind
direction
speed
KPH
gust
KPH
rain 1hr
cm
rain 24hr
cm
rain mn
cm
humidity
%
barometer
mb
20260508001511 7 0.0 0.0 0.00 0.00 0.00 92 1003.1
20260508000004 7 0.0 0.0 0.00 0.00 0.00 92 1003.0
20260507234601 7 0.0 0.0 0.00 0.00 0.00 91 1002.9
20260507233056 8 0.0 0.0 0.00 0.00 0.00 92 1002.4
20260507231555 10 0.0 0.0 0.00 0.00 0.00 92 1002.3
20260507230051 12 0.0 0.0 0.00 0.00 0.00 87 1001.8
20260507224545 13 0.0 0.0 0.00 0.00 0.00 88 1001.3
20260507223039 13 0.0 0.0 0.00 0.00 0.00 88 1001.3
20260507221539 13 0.0 0.0 0.00 0.00 0.00 88 1001.3
20260507220030 13 0.0 0.0 0.00 0.00 0.00 88 1001.3
20260507214527 13 0.0 0.0 0.00 0.00 0.00 91 1001.0
20260507213022 12 0.0 0.0 0.00 0.00 0.00 91 1001.0
20260507211522 12 0.0 0.0 0.00 0.00 0.00 91 1001.0
20260507210013 12 0.0 0.0 0.00 0.00 0.00 91 1001.0
20260507204508 12 0.0 0.0 0.00 0.00 0.00 91 1000.8
20260507203004 12 0.0 0.0 0.00 0.00 0.00 91 1000.9
20260507201616 12 0.0 0.0 0.00 0.00 0.00 92 1000.3
20260507200108 12 0.0 0.0 0.00 0.00 0.00 92 1000.1
20260507194552 12 0.0 0.0 0.00 0.00 0.00 91 1001.0
20260507193049 12 0.0 0.0 0.00 0.00 0.00 91 1001.6
20260507191542 12 0.0 0.0 0.00 0.00 0.00 91 1003.0
20260507190038 12 0.0 0.0 0.00 0.00 0.00 90 1002.8
20260507184534 12 0.0 0.0 0.00 0.00 0.00 91 1003.4
20260507183033 12 0.0 0.0 0.00 0.00 0.00 91 1003.6
20260507181530 12 0.0 0.0 0.00 0.00 0.00 91 1003.9
20260507180026 12 0.0 0.0 0.00 0.00 0.00 91 1004.2
20260507174520 12 0.0 0.0 0.00 0.00 0.00 90 1004.5
20260507173024 13 0.0 0.0 0.00 0.00 0.00 89 1004.0
20260507171509 13 0.0 0.0 0.00 0.00 0.00 89 1003.2
20260507170004 13 0.0 0.0 0.00 0.00 0.00 87 1003.0
20260507164604 14 0.0 0.0 0.00 0.00 0.00 85 1003.1
20260507163054 15 0.0 0.0 0.00 0.00 0.00 84 1003.8
20260507161549 15 0.0 0.0 0.00 0.00 0.00 83 1003.7
20260507160045 15 0.0 0.0 0.00 0.00 0.00 82 1004.0
20260507154550 15 0.0 0.0 0.00 0.00 0.00 81 1004.3
20260507153036 16 0.0 0.0 0.00 0.00 0.00 80 1004.6
20260507151533 16 0.0 0.0 0.00 0.00 0.00 80 1005.4
20260507150029 15 0.0 0.0 0.00 0.00 0.00 81 1005.2
20260507144529 16 0.0 0.0 0.00 0.00 0.00 81 1005.5
20260507143025 15 0.0 0.0 0.00 0.00 0.00 82 1005.2
20260507141515 15 0.0 0.0 0.00 0.00 0.00 84 1005.9
20260507140009 15 0.0 0.0 0.00 0.00 0.00 84 1006.2
20260507134509 15 0.0 0.0 0.00 0.00 0.00 85 1006.6
20260507133001 14 0.0 0.0 0.00 0.00 0.00 86 1006.4
20260507131557 14 0.0 0.0 0.00 0.00 0.00 86 1006.4
20260507130106 14 0.0 0.0 0.00 0.00 0.00 87 1006.7
20260507124548 14 0.0 0.0 0.00 0.00 0.00 86 1006.7
20260507123044 14 0.0 0.0 0.00 0.00 0.00 87 1007.0
20260507121539 14 0.0 0.0 0.00 0.00 0.00 87 1006.8
20260507120048 13 0.0 0.0 0.00 0.00 0.00 87 1006.8
20260507114541 13 0.0 0.0 0.00 0.00 0.00 88 1007.3
20260507113026 13 0.0 0.0 0.00 0.00 0.00 88 1007.6
20260507111524 13 0.0 0.0 0.00 0.00 0.00 87 1008.4
20260507110018 14 0.0 0.0 0.00 0.00 0.00 87 1008.2
20260507104514 13 0.0 0.0 0.00 0.00 0.00 87 1008.1
20260507103012 13 0.0 0.0 0.00 0.00 0.00 87 1008.4
20260507101513 13 0.0 0.0 0.00 0.00 0.00 87 1008.1
20260507100103 13 0.0 0.0 0.00 0.00 0.00 87 1008.8
20260507094604 13 0.0 0.0 0.00 0.00 0.00 87 1007.4
20260507093051 13 0.0 0.0 0.00 0.00 0.00 88 1008.9
20260507091548 13 0.0 0.0 0.00 0.00 0.00 88 1009.1
20260507090047 13 0.0 0.0 0.00 0.00 0.00 88 1009.8
20260507084552 13 0.0 0.0 0.00 0.00 0.00 88 1009.7
20260507083034 13 0.0 0.0 0.00 0.00 0.00 87 1010.3
20260507081530 13 0.0 0.0 0.00 0.00 0.00 87 1010.1
20260507080025 14 0.0 0.0 0.00 0.00 0.00 87 1010.2
20260507074522 14 0.0 0.0 0.00 0.00 0.00 87 1010.4
20260507073017 14 0.0 0.0 0.00 0.00 0.00 86 1010.8
20260507071513 14 0.0 0.0 0.00 0.00 0.00 85 1011.2
20260507070012 14 0.0 0.0 0.00 0.00 0.00 84 1011.3
20260507064605 14 0.0 0.0 0.00 0.00 0.00 84 1011.4
20260507063106 14 0.0 0.0 0.00 0.00 0.00 83 1011.5
20260507061555 14 0.0 0.0 0.00 0.00 0.00 82 1011.4
20260507060056 15 0.0 0.0 0.00 0.00 0.00 80 1011.9
20260507054547 15 0.0 0.0 0.00 0.00 0.00 79 1011.8
20260507053042 15 0.0 0.0 0.00 0.00 0.00 71 1012.3
20260507051538 15 0.0 0.0 0.00 0.00 0.00 68 1012.7
20260507050034 15 0.0 0.0 0.00 0.00 0.00 70 1012.8
20260507044530 15 0.0 0.0 0.00 0.00 0.00 75 1013.5
20260507043025 15 0.0 0.0 0.00 0.00 0.00 76 1014.1
20260507041520 15 0.0 0.0 0.00 0.00 0.00 76 1014.4
20260507040016 15 0.0 0.0 0.00 0.00 0.00 76 1014.7
20260507034513 15 0.0 0.0 0.00 0.00 0.00 77 1015.0
20260507033007 15 0.0 0.0 0.00 0.00 0.00 76 1015.3
20260507031605 15 0.0 0.0 0.00 0.00 0.00 76 1015.5
20260507030059 15 0.0 0.0 0.00 0.00 0.00 76 1015.7
20260507024607 15 0.0 0.0 0.00 0.00 0.00 75 1016.0
20260507023057 15 0.0 0.0 0.00 0.00 0.00 75 1015.9
20260507021601 15 0.0 0.0 0.00 0.00 0.00 75 1016.1
20260507020113 15 0.0 0.0 0.00 0.00 0.00 75 1016.1
20260507014604 15 0.0 0.0 0.00 0.00 0.00 76 1016.1
20260507013058 15 0.0 0.0 0.00 0.00 0.00 75 1016.3
20260507011556 15 0.0 0.0 0.00 0.00 0.00 76 1016.3
20260507004604 15 0.0 0.0 0.00 0.00 0.00 75 1016.6
20260507003055 15 0.0 0.0 0.00 0.00 0.00 75 1016.6